W8UFO-13 Weather Reports


Display with metric or nautical units.
time (UTC)temp
F
wind
direction
speed
MPH
gust
MPH
rain 1hr
in
rain 24hr
in
rain mn
in
humidity
%
barometer
mb
20260902200020 98 90 3.0 5.0 0.00 0.00 0.00 52 1020.2
20260902195521 98 90 1.0 2.0 0.00 0.00 0.00 51 1020.2
20260902195020 98 113 1.0 2.0 0.00 0.00 0.00 53 1020.2
20260902194519 98 0.0 1.0 0.00 0.00 0.00 53 1020.3
20260902194016 98 90 2.0 2.0 0.00 0.00 0.00 50 1020.4
20260902193520 98 203 1.0 2.0 0.00 0.00 0.00 52 1020.6
20260902193020 98 0.0 1.0 0.00 0.00 0.00 55 1020.6
20260902192519 98 338 1.0 3.0 0.00 0.00 0.00 52 1020.6
20260902192020 97 225 1.0 2.0 0.00 0.00 0.00 53 1020.7
20260902191520 96 0.0 1.0 0.00 0.00 0.00 55 1020.7
20260902191017 96 113 1.0 1.0 0.00 0.00 0.00 55 1020.8
20260902190519 97 338 2.0 3.0 0.00 0.00 0.00 53 1020.8
20260902190019 97 0.0 1.0 0.00 0.00 0.00 56 1020.9
20260902185521 96 68 1.0 3.0 0.00 0.00 0.00 55 1021.0
20260902185020 96 23 1.0 3.0 0.00 0.00 0.00 57 1021.0
20260902184521 96 45 1.0 2.0 0.00 0.00 0.00 57 1021.1
20260902184018 97 293 1.0 2.0 0.00 0.00 0.00 56 1021.1
20260902183519 96 0.0 0.0 0.00 0.00 0.00 57 1021.0
20260902183016 95 23 2.0 3.0 0.00 0.00 0.00 57 1021.2
20260902182518 95 68 2.0 4.0 0.00 0.00 0.00 60 1021.4
20260902182018 95 68 2.0 3.0 0.00 0.00 0.00 58 1021.5
20260902181520 96 338 1.0 2.0 0.00 0.00 0.00 59 1021.4
20260902181019 95 0 1.0 2.0 0.00 0.00 0.00 58 1021.4
20260902180522 95 90 1.0 3.0 0.00 0.00 0.00 59 1021.5
20260902180016 95 23 3.0 4.0 0.00 0.00 0.00 58 1021.5
20260902175516 96 225 2.0 3.0 0.00 0.00 0.00 57 1021.6
20260902175019 96 0.0 1.0 0.00 0.00 0.00 59 1021.7
20260902174519 95 135 1.0 2.0 0.00 0.00 0.00 60 1021.8
20260902174022 95 180 1.0 3.0 0.00 0.00 0.00 59 1021.9
20260902173520 95 0.0 1.0 0.00 0.00 0.00 60 1021.9
20260902173022 94 68 2.0 3.0 0.00 0.00 0.00 59 1021.9
20260902172517 94 0.0 2.0 0.00 0.00 0.00 61 1022.1
20260902172017 94 90 2.0 4.0 0.00 0.00 0.00 59 1022.1
20260902171517 94 0.0 1.0 0.00 0.00 0.00 60 1022.2
20260902171021 94 338 1.0 2.0 0.00 0.00 0.00 62 1022.3
20260902170519 94 0.0 1.0 0.00 0.00 0.00 61 1022.4
20260902170016 94 203 2.0 3.0 0.00 0.00 0.00 63 1022.4
20260902165520 93 90 1.0 2.0 0.00 0.00 0.00 61 1022.4
20260902165021 93 0.0 2.0 0.00 0.00 0.00 62 1022.6
20260902164518 93 0.0 2.0 0.00 0.00 0.00 64 1022.6
20260902164016 93 0.0 1.0 0.00 0.00 0.00 63 1022.8
20260902163516 92 0.0 1.0 0.00 0.00 0.00 63 1022.8
20260902163016 91 0.0 0.0 0.00 0.00 0.00 64 1022.9
20260902162520 91 248 1.0 2.0 0.00 0.00 0.00 66 1022.9
20260902162016 90 0.0 1.0 0.00 0.00 0.00 67 1023.0
20260902161522 90 68 2.0 3.0 0.00 0.00 0.00 68 1022.9
20260902161021 90 68 1.0 2.0 0.00 0.00 0.00 68 1022.9
20260902160521 90 68 1.0 3.0 0.00 0.00 0.00 67 1023.0
20260902160023 90 90 2.0 4.0 0.00 0.00 0.00 68 1022.9
20260902155520 89 225 1.0 1.0 0.00 0.00 0.00 69 1023.0
20260902155020 89 203 1.0 2.0 0.00 0.00 0.00 70 1023.1
20260902154518 88 0.0 1.0 0.00 0.00 0.00 72 1022.9
20260902154017 87 68 2.0 4.0 0.00 0.00 0.00 73 1023.0
20260902153518 87 0.0 1.0 0.00 0.00 0.00 73 1023.1
20260902153017 86 0 1.0 1.0 0.00 0.00 0.00 73 1023.1
20260902152515 86 0.0 1.0 0.00 0.00 0.00 76 1023.0
20260902152017 85 23 1.0 2.0 0.00 0.00 0.00 76 1023.0
20260902151518 85 0 1.0 5.0 0.00 0.00 0.00 77 1023.1
20260902151018 85 0.0 2.0 0.00 0.00 0.00 78 1023.1
20260902150519 84 0 1.0 3.0 0.00 0.00 0.00 77 1023.0
20260902150019 84 248 3.0 4.0 0.00 0.00 0.00 78 1023.0
20260902145519 84 0.0 0.0 0.00 0.00 0.00 79 1023.1
20260902145019 84 0.0 0.0 0.00 0.00 0.00 79 1023.1
20260902144515 83 0.0 1.0 0.00 0.00 0.00 80 1023.0
20260902144016 83 0.0 1.0 0.00 0.00 0.00 81 1022.9
20260902143518 82 0.0 1.0 0.00 0.00 0.00 81 1022.9
20260902143019 82 0.0 1.0 0.00 0.00 0.00 82 1022.9
20260902142518 82 0.0 0.0 0.00 0.00 0.00 82 1022.8
20260902142015 82 0.0 0.0 0.00 0.00 0.00 83 1022.9
20260902141519 82 0.0 0.0 0.00 0.00 0.00 84 1022.8
20260902141020 81 0.0 1.0 0.00 0.00 0.00 82 1022.8
20260902140518 81 0.0 1.0 0.00 0.00 0.00 84 1022.9
20260902140020 81 68 1.0 2.0 0.00 0.00 0.00 86 1022.7
20260902135522 81 0.0 1.0 0.00 0.00 0.00 86 1022.8
20260902135018 81 0.0 1.0 0.00 0.00 0.00 87 1022.9
20260902134521 80 68 1.0 2.0 0.00 0.00 0.00 87 1022.8
20260902134019 80 0.0 1.0 0.00 0.00 0.00 87 1022.9
20260902133521 80 0.0 0.0 0.00 0.00 0.00 87 1022.9
20260902133021 80 68 2.0 2.0 0.00 0.00 0.00 87 1023.0
20260902132517 80 90 1.0 1.0 0.00 0.00 0.00 86 1023.0
20260902132021 80 90 1.0 2.0 0.00 0.00 0.00 85 1023.0
20260902131523 81 315 1.0 2.0 0.00 0.00 0.00 84 1023.1
20260902131019 80 0.0 0.0 0.00 0.00 0.00 88 1023.0
20260902130520 79 0.0 0.0 0.00 0.00 0.00 89 1023.0
20260902130020 78 0.0 0.0 0.00 0.00 0.00 92 1022.9
20260902125518 77 0.0 0.0 0.00 0.00 0.00 94 1022.8
20260902125018 75 0.0 0.0 0.00 0.00 0.00 96 1022.8
20260902124517 74 0.0 0.0 0.00 0.00 0.00 96 1022.7
20260902124021 74 0.0 0.0 0.00 0.00 0.00 97 1022.8
20260902123520 73 0.0 0.0 0.00 0.00 0.00 97 1022.8
20260902123021 73 0.0 1.0 0.00 0.00 0.00 98 1022.8
20260902122522 72 0.0 0.0 0.00 0.00 0.00 98 1022.9
20260902122018 72 0.0 0.0 0.00 0.00 0.00 98 1022.9
20260902121519 72 0.0 0.0 0.00 0.00 0.00 98 1022.8
20260902121017 72 0.0 0.0 0.00 0.00 0.00 98 1022.8
20260902120518 72 0.0 0.0 0.00 0.00 0.00 98 1022.8
20260902120021 72 0.0 0.0 0.00 0.00 0.00 98 1022.7
20260902115519 71 0.0 0.0 0.00 0.00 0.00 98 1022.7
20260902115021 71 0.0 0.0 0.00 0.00 0.00 98 1022.6
20260902114520 71 0.0 0.0 0.00 0.00 0.00 98 1022.5
20260902114021 71 0.0 0.0 0.00 0.00 0.00 98 1022.6
20260902113521 71 0.0 0.0 0.00 0.00 0.00 98 1022.5
20260902113018 71 0.0 0.0 0.00 0.00 0.00 98 1022.5
20260902112520 71 0.0 0.0 0.00 0.00 0.00 98 1022.4
20260902112021 71 0.0 0.0 0.00 0.00 0.00 97 1022.3
20260902111521 71 0.0 0.0 0.00 0.00 0.00 98 1022.3
20260902111020 71 0.0 0.0 0.00 0.00 0.00 98 1022.2
20260902110518 71 0.0 0.0 0.00 0.00 0.00 97 1022.2
20260902110021 71 0.0 0.0 0.00 0.00 0.00 98 1022.1
20260902105517 71 0.0 0.0 0.00 0.00 0.00 98 1022.0
20260902105017 71 0.0 0.0 0.00 0.00 0.00 97 1022.0
20260902104518 72 0.0 0.0 0.00 0.00 0.00 97 1022.0
20260902104020 72 0.0 0.0 0.00 0.00 0.00 98 1021.9
20260902103519 72 0.0 0.0 0.00 0.00 0.00 98 1022.0
20260902103019 72 0.0 0.0 0.00 0.00 0.00 97 1021.9
20260902102521 72 0.0 0.0 0.00 0.00 0.00 97 1021.7
20260902102018 72 0.0 0.0 0.00 0.00 0.00 97 1021.7
20260902101520 72 0.0 0.0 0.00 0.00 0.00 97 1021.7
20260902101021 72 0.0 0.0 0.00 0.00 0.00 97 1021.7
20260902100521 72 0.0 0.0 0.00 0.00 0.00 97 1021.6
20260902100021 72 0.0 0.0 0.00 0.00 0.00 97 1021.5
20260902095519 72 0.0 0.0 0.00 0.00 0.00 97 1021.5
20260902095022 72 0.0 0.0 0.00 0.00 0.00 97 1021.5
20260902094520 72 0.0 0.0 0.00 0.00 0.00 97 1021.6
20260902094022 72 0.0 0.0 0.00 0.00 0.00 97 1021.5
20260902093520 72 0.0 0.0 0.00 0.00 0.00 97 1021.4
20260902093021 72 0.0 0.0 0.00 0.00 0.00 97 1021.3
20260902092522 72 0.0 0.0 0.00 0.00 0.00 97 1021.4
20260902092018 72 0.0 0.0 0.00 0.00 0.00 97 1021.2
20260902091520 72 0.0 0.0 0.00 0.00 0.00 97 1021.3
20260902091017 72 0.0 0.0 0.00 0.00 0.00 97 1021.3
20260902090517 73 0.0 0.0 0.00 0.00 0.00 97 1021.2
20260902090020 73 0.0 0.0 0.00 0.00 0.00 97 1021.3
20260902085520 72 0.0 0.0 0.00 0.00 0.00 97 1021.2
20260902085018 73 0.0 0.0 0.00 0.00 0.00 97 1021.2
20260902084521 73 0.0 0.0 0.00 0.00 0.00 97 1021.1
20260902084019 73 0.0 0.0 0.00 0.00 0.00 97 1021.2
20260902083521 73 0.0 0.0 0.00 0.00 0.00 97 1021.2
20260902083020 73 0.0 0.0 0.00 0.00 0.00 97 1021.1
20260902082521 73 0.0 0.0 0.00 0.00 0.00 97 1021.1
20260902082019 73 0.0 0.0 0.00 0.00 0.00 97 1021.1
20260902081521 73 0.0 0.0 0.00 0.00 0.00 97 1021.1
20260902081020 73 0.0 0.0 0.00 0.00 0.00 97 1021.1
20260902080521 73 0.0 0.0 0.00 0.00 0.00 96 1021.1
20260902080351 73 0.0 0.0 0.00 0.00 0.00 96 1021.2
20260902075522 73 0.0 0.0 0.00 0.00 0.00 96 1021.1
20260902075019 74 0.0 0.0 0.00 0.00 0.00 96 1021.1
20260902074517 74 0.0 0.0 0.00 0.00 0.00 96 1021.1
20260902074018 74 0.0 0.0 0.00 0.00 0.00 96 1021.1
20260902073517 74 0.0 0.0 0.00 0.00 0.00 96 1021.0
20260902073019 74 0.0 0.0 0.00 0.00 0.00 96 1021.0
20260902072521 74 0.0 0.0 0.00 0.00 0.00 96 1021.0
20260902072020 74 0.0 0.0 0.00 0.00 0.00 96 1021.0
20260902071518 74 0.0 0.0 0.00 0.00 0.00 96 1021.1
20260902071019 74 0.0 0.0 0.00 0.00 0.00 95 1021.1
20260902070518 74 0.0 0.0 0.00 0.00 0.00 95 1021.2
20260902070020 74 0.0 0.0 0.00 0.00 0.00 95 1021.2
20260902065519 74 0.0 0.0 0.00 0.00 0.00 95 1021.1
20260902065020 74 0.0 0.0 0.00 0.00 0.00 95 1021.2
20260902064522 75 0.0 0.0 0.00 0.00 0.00 95 1021.3
20260902064022 75 0.0 0.0 0.00 0.00 0.00 95 1021.3
20260902063519 75 0.0 0.0 0.00 0.00 0.00 95 1021.2
20260902063020 75 0.0 0.0 0.00 0.00 0.00 95 1021.4
20260902062521 75 0.0 0.0 0.00 0.00 0.00 94 1021.5
20260902062023 75 0.0 0.0 0.00 0.00 0.00 94 1021.5
20260902061521 75 0.0 0.0 0.00 0.00 0.00 94 1021.5
20260902061023 75 0.0 0.0 0.00 0.00 0.00 94 1021.5
20260902060522 75 0.0 0.0 0.00 0.00 0.00 94 1021.5
20260902060022 75 0.0 0.0 0.00 0.00 0.00 94 1021.5
20260902055521 75 0.0 0.0 0.00 0.00 0.00 94 1021.5
20260902055021 75 0.0 0.0 0.00 0.00 0.00 94 1021.5
20260902054522 75 0.0 0.0 0.00 0.00 0.00 93 1021.4
20260902054020 75 0.0 0.0 0.00 0.00 0.00 93 1021.4
20260902053517 75 0.0 0.0 0.00 0.00 0.00 93 1021.3
20260902053019 75 0.0 0.0 0.00 0.00 0.00 93 1021.3
20260902052522 75 0.0 0.0 0.00 0.00 0.00 92 1021.3
20260902052017 75 0.0 0.0 0.00 0.00 0.00 92 1021.3
20260902051519 76 0.0 0.0 0.00 0.00 0.00 92 1021.3
20260902051018 76 0.0 0.0 0.00 0.00 0.00 92 1021.3
20260902050520 76 0.0 0.0 0.00 0.00 0.00 91 1021.3
20260902050018 76 0.0 0.0 0.00 0.00 0.00 91 1021.3
20260902045522 76 0.0 0.0 0.00 0.00 0.00 91 1021.3
20260902045018 76 0.0 0.0 0.00 0.00 0.00 91 1021.4
20260902044524 76 0.0 0.0 0.00 0.00 0.00 91 1021.3
20260902044021 76 0.0 0.0 0.00 0.00 0.00 90 1021.3
20260902043522 76 0.0 0.0 0.00 0.00 0.00 90 1021.4
20260902043019 77 0.0 0.0 0.00 0.00 0.00 90 1021.2
20260902042520 77 0.0 0.0 0.00 0.00 0.00 90 1021.2
20260902042018 77 0.0 0.0 0.00 0.00 0.00 90 1021.2
20260902041517 77 0.0 0.0 0.00 0.00 0.00 90 1021.2
20260902041021 77 0.0 0.0 0.00 0.00 0.00 90 1021.1
20260902040517 77 0.0 0.0 0.00 0.00 0.00 89 1021.1
20260902040017 77 0.0 0.0 0.00 0.00 0.00 88 1021.1
20260902035516 77 0.0 0.0 0.00 0.00 0.00 88 1021.0
20260902035022 77 0.0 0.0 0.00 0.00 0.00 88 1021.0
20260902034520 77 0.0 0.0 0.00 0.00 0.00 88 1021.0
20260902034020 77 0.0 0.0 0.00 0.00 0.00 88 1020.8
20260902033519 78 0.0 0.0 0.00 0.00 0.00 88 1020.9
20260902033019 78 0.0 0.0 0.00 0.00 0.00 88 1020.9
20260902032516 78 0.0 0.0 0.00 0.00 0.00 88 1021.0
20260902032017 78 0.0 0.0 0.00 0.00 0.00 88 1020.9
20260902031519 78 0.0 0.0 0.00 0.00 0.00 88 1020.9
20260902031021 78 0.0 0.0 0.00 0.00 0.00 88 1020.8
20260902030520 78 0.0 0.0 0.00 0.00 0.00 87 1020.8
20260902030022 78 0.0 0.0 0.00 0.00 0.00 87 1020.9
20260902025520 78 0.0 0.0 0.00 0.00 0.00 87 1020.9
20260902025017 79 0.0 0.0 0.00 0.00 0.00 86 1020.8
20260902024516 79 0.0 0.0 0.00 0.00 0.00 86 1020.8
20260902024020 79 0.0 0.0 0.00 0.00 0.00 85 1020.7
20260902023520 79 0.0 0.0 0.00 0.00 0.00 85 1020.6
20260902023021 79 0.0 0.0 0.00 0.00 0.00 85 1020.7
20260902022521 79 0.0 0.0 0.00 0.00 0.00 85 1020.6
20260902022020 80 0.0 0.0 0.00 0.00 0.00 84 1020.7
20260902021518 80 0.0 0.0 0.00 0.00 0.00 85 1020.7
20260902021019 80 0.0 0.0 0.00 0.00 0.00 84 1020.7
20260902020519 80 0.0 0.0 0.00 0.00 0.00 84 1020.7
20260902020019 80 0.0 0.0 0.00 0.00 0.00 84 1020.7
20260902015517 80 0.0 0.0 0.00 0.00 0.00 83 1020.7
20260902015023 80 0.0 0.0 0.00 0.00 0.00 83 1020.7
20260902014518 81 0.0 0.0 0.00 0.00 0.00 83 1020.7
20260902014020 81 0.0 0.0 0.00 0.00 0.00 82 1020.7
20260902013517 81 0.0 0.0 0.00 0.00 0.00 82 1020.7
20260902013020 81 0.0 0.0 0.00 0.00 0.00 81 1020.6
20260902012517 81 0.0 0.0 0.00 0.00 0.00 81 1020.6
20260902012020 81 0.0 0.0 0.00 0.00 0.00 81 1020.5
20260902011520 82 0.0 0.0 0.00 0.00 0.00 80 1020.5
20260902011021 82 0.0 0.0 0.00 0.00 0.00 80 1020.2
20260902010520 82 0.0 0.0 0.00 0.00 0.00 79 1020.3
20260902010016 82 0.0 0.0 0.00 0.00 0.00 79 1020.1
20260902005519 82 0.0 0.0 0.00 0.00 0.00 78 1020.1
20260902005022 83 0.0 0.0 0.00 0.00 0.00 78 1020.0
20260902004522 83 0.0 0.0 0.00 0.00 0.00 77 1020.0
20260902004022 83 0.0 0.0 0.00 0.00 0.00 77 1019.9
20260902003516 84 0.0 0.0 0.00 0.00 0.00 76 1019.9
20260902003017 84 0.0 0.0 0.00 0.00 0.00 74 1019.9
20260902002522 84 0.0 0.0 0.00 0.00 0.00 74 1019.8
20260902002016 85 0.0 0.0 0.00 0.00 0.00 74 1020.0
20260902001516 85 0.0 0.0 0.00 0.00 0.00 73 1020.0
20260902001016 86 0.0 0.0 0.00 0.00 0.00 72 1020.0
20260902000517 86 0.0 0.0 0.00 0.00 0.00 71 1020.0
20260902000018 86 0.0 0.0 0.00 0.00 0.00 71 1020.1
20260901235522 87 0.0 0.0 0.00 0.00 0.00 71 1020.1
20260901235020 87 0.0 0.0 0.00 0.00 0.00 72 1020.1
20260901234517 87 0.0 1.0 0.00 0.00 0.00 71 1020.2
20260901234019 88 0.0 0.0 0.00 0.00 0.00 71 1020.2
20260901233516 88 0.0 0.0 0.00 0.00 0.00 71 1020.3
20260901233017 88 0.0 0.0 0.00 0.00 0.00 70 1020.3
20260901232517 89 0.0 0.0 0.00 0.00 0.00 69 1020.3
20260901232017 89 0.0 0.0 0.00 0.00 0.00 66 1020.4
20260901231522 89 0.0 0.0 0.00 0.00 0.00 66 1020.4
20260901231019 90 0.0 0.0 0.00 0.00 0.00 66 1020.4
20260901230517 90 0.0 1.0 0.00 0.00 0.00 64 1020.4
20260901230017 90 0.0 0.0 0.00 0.00 0.00 65 1020.4
20260901225516 90 0.0 0.0 0.00 0.00 0.00 66 1020.3
20260901225022 91 0.0 1.0 0.00 0.00 0.00 63 1020.1
20260901224520 91 0.0 0.0 0.00 0.00 0.00 64 1020.0
20260901224020 91 0.0 0.0 0.00 0.00 0.00 61 1020.0
20260901223520 91 23 1.0 2.0 0.00 0.00 0.00 62 1020.2
20260901223018 92 0.0 0.0 0.00 0.00 0.00 62 1020.2
20260901222516 92 0.0 1.0 0.00 0.00 0.00 61 1020.2
20260901222018 92 0.0 1.0 0.00 0.00 0.00 61 1020.3
20260901221518 92 0.0 0.0 0.00 0.00 0.00 63 1020.2
20260901221019 92 0.0 0.0 0.00 0.00 0.00 62 1020.0
20260901220518 92 0.0 0.0 0.00 0.00 0.00 62 1019.9
20260901220018 92 0.0 0.0 0.00 0.00 0.00 60 1019.9
20260901215518 92 0.0 1.0 0.00 0.00 0.00 59 1020.1
20260901215016 92 0.0 1.0 0.00 0.00 0.00 62 1020.2
20260901214519 92 338 1.0 1.0 0.00 0.00 0.00 60 1020.1
20260901214018 92 0.0 2.0 0.00 0.00 0.00 61 1020.2
20260901213518 92 0.0 1.0 0.00 0.00 0.00 61 1020.2
20260901213016 92 0.0 0.0 0.00 0.00 0.00 65 1020.2
20260901212516 92 0.0 0.0 0.00 0.00 0.00 64 1020.4
20260901212019 91 0.0 1.0 0.00 0.00 0.00 66 1020.4
20260901211519 90 0.0 0.0 0.00 0.00 0.00 69 1020.3
20260901211018 90 0.0 0.0 0.00 0.00 0.00 65 1020.4
20260901210517 90 0.0 0.0 0.00 0.00 0.00 68 1020.5
20260901210019 90 0.0 0.0 0.00 0.00 0.00 66 1020.5
20260901205521 91 0.0 1.0 0.00 0.00 0.00 65 1020.7
20260901205019 91 0.0 0.0 0.00 0.00 0.00 65 1020.7
20260901204516 91 0.0 0.0 0.00 0.00 0.00 62 1020.7
20260901204016 91 0.0 1.0 0.00 0.00 0.00 61 1020.6
20260901203520 92 0.0 1.0 0.00 0.00 0.00 62 1020.8
20260901203017 92 23 2.0 4.0 0.00 0.00 0.00 61 1020.7
20260901202516 92 0.0 0.0 0.00 0.00 0.00 61 1020.7
20260901202018 92 68 1.0 2.0 0.00 0.00 0.00 59 1020.7
20260901201516 93 0.0 1.0 0.00 0.00 0.00 58 1020.8
20260901201016 93 23 1.0 2.0 0.00 0.00 0.00 58 1020.9
20260901200518 94 0.0 0.0 0.00 0.00 0.00 57 1021.0